Home   Weather   Germantown   Past weeks
Flag for USA

Past Weather in Germantown, Maryland, USA — Yesterday and Last 2 Weeks

Now
55 °F

Sunny.


Feels Like: 53 °F
Forecast: 51 / 32 °F
Wind: 9 mph from Northwest

Location: Frederick Municipal Airport

Current Time: Feb 21, 2019 at 5:34:30 pm

Latest Report: Feb 21, 2019 at 4:47 pm


Visibility: 10 mi

Pressure: 30.10 "Hg

Humidity: 33%

Dew Point: 27 °F

Location of GermantownLocation

Past Weather in Germantown — Graph

°F

Germantown Temperature Yesterday

Maximum temperature yesterday: 34 °F (at 2:47 pm)
Minimum temperature yesterday: 28 °F (at 8:47 am)
Average temperature yesterday: 32 °F

High & Low Weather Summary for the Past Weeks

 TemperatureHumidityPressure
High66 °F (Feb 15, 1:47 pm)100% (Feb 6, 6:47 pm)30.79 "Hg (Feb 6, 6:47 pm)
Low19 °F (Feb 10, 3:40 am)23% (Feb 15, 8:47 pm)29.64 "Hg (Feb 15, 2:47 pm)
Average37 °F75%30.17 "Hg
* Reported Feb 6 3:52 pm — Feb 21 3:47 pm, Germantown. Weather by CustomWeather, © 2019

Note: Actual official high and low records may vary slightly from our data, if they occured in-between our weather recording intervals... More about our weather records

Advertising

Germantown Weather History for the Previous 24 Hours

Scroll right to see more
 ConditionsComfort  
Time TempWeatherWind HumidityBarometerVisibility
3:47 pm
Thu, Feb 21
55 °FSunny.9 mph38%30.07 "Hg10 mi
2:47 pm54 °FSunny.10 mph44%30.07 "Hg10 mi
1:47 pm54 °FSunny.9 mph51%30.07 "Hg10 mi
11:47 am43 °FSunny.5 mph81%30.09 "Hg10 mi
10:47 am43 °FSunny.10 mph81%30.09 "Hg10 mi
9:47 am37 °FSunny.3 mph93%30.08 "Hg7 mi
8:47 am36 °FFog.6 mph93%30.06 "Hg5 mi
7:47 am34 °FFog.No wind100%30.03 "Hg10 mi
7:00 am34 °FFog.No wind93%30.02 "Hg5 mi
6:54 am34 °FFog.No wind100%30.02 "Hg5 mi
6:25 am32 °FIce fog.3 mph100%30.02 "Hg5 mi
6:05 am32 °FIce fog.5 mph100%30.02 "Hg4 mi
5:45 am32 °FIce fog.5 mph100%30.02 "Hg3 mi
5:25 am32 °FIce fog.6 mph100%30.03 "Hg3 mi
5:05 am32 °FIce fog.5 mph100%30.02 "Hg4 mi
4:25 am32 °FThundershowers. Ice fog.No wind100%30.00 "Hg1 mi
4:05 am32 °FThundershowers. Ice fog.No wind100%30.00 "Hg1 mi
3:25 am32 °FIce fog.No wind100%30.01 "Hg1 mi
3:05 am32 °FIce fog.No wind100%30.01 "Hg3 mi
2:25 am32 °FIce fog.No wind100%30.02 "Hg3 mi
2:05 am32 °FIce fog.No wind100%30.02 "Hg5 mi
1:45 am32 °FIce fog.No wind100%30.03 "Hg5 mi
1:25 am32 °FIce fog.No wind100%30.03 "Hg5 mi
1:05 am32 °FIce fog.No wind100%30.04 "Hg5 mi
12:45 am32 °FLow clouds.No wind100%30.04 "Hg7 mi
12:25 am32 °FLow clouds.3 mph100%30.05 "Hg7 mi
12:05 am32 °FMostly cloudy.No wind100%30.06 "Hg7 mi
11:45 pm
Wed, Feb 20
32 °FLight snow. Low clouds.No wind100%30.08 "Hg5 mi
11:25 pm32 °FLight snow. Low clouds.No wind100%30.09 "Hg4 mi
11:05 pm32 °FLight snow. Low clouds.5 mph100%30.11 "Hg3 mi
10:45 pm32 °FLight snow. Low clouds.3 mph100%30.12 "Hg3 mi
10:25 pm32 °FLight snow. Low clouds.No wind100%30.12 "Hg7 mi
10:05 pm32 °FThundershowers. Low clouds.No wind100%30.13 "Hg10 mi
9:45 pm32 °FLow clouds.No wind100%30.12 "Hg7 mi
9:25 pm32 °FLight snow. Low clouds.No wind100%30.15 "Hg10 mi
9:05 pm32 °FLow clouds.No wind100%30.18 "Hg10 mi
8:47 pm34 °FLow clouds.3 mph93%30.18 "Hg10 mi
7:47 pm34 °FFog.No wind93%30.23 "Hg4 mi
6:47 pm34 °FFog.No wind93%30.28 "Hg4 mi
5:47 pm34 °FFog.No wind93%30.29 "Hg2 mi
Weather by CustomWeather, © 2019

See weather overview